Find Starlink 36975

NORAD ID: 67993 Int'l Des: 2026-039 Owner: SPXS Country: US Constellation: starlink operational
LEOCIRCULAR

Aktuelle Ansicht

3D-Globus wird geladen...

Über Starlink 36975

Beschreibung wird geladen...

Nächste Überflüge

Passes for default location (London). Set your location on the main map for personalized predictions.

Höhenverlauf

Loading altitude history...

Zweizeiliger Elementsatz

1 67993U 26039H 26150.81991190 .00022795 00000-0 83508-3 0 9998
2 67993 43.0049 305.1667 0001788 282.5588 77.5064 15.27588803 14265
Epoch: 30. Mai 2026 • Age: 16 hours

Aktueller Status

Höhe 486.8 km
Geschwindigkeit 7.62 km/s
Subsatellitenpunkt -21.00°S, 140.12°W
Startdatum 27. Feb. 2026
Alter 0.2 years
Typ internet

Technische Details

Klassifizierung Payload
Masse 575.00 kg
Trockenmasse 530.00 kg
Gesamtmasse 575.00 kg
Länge 0.30 m
Durchmesser 4.10 m
Spannweite 29.00 m
Form Box + pan
Hersteller SPXS
Bus-Typ Starlink V2MO
Phasenstatus In Orbit
Besitzer/Staat SPXS/US

Most Searched